| time (UTC) | temp F | wind direction | speed knots | gust knots | rain 1hr in | rain 24hr in | rain mn in | humidity % | barometer mb |
| 20260505173048 | 45 | 11 | 9.6 | 16.5 | 0.00 | 0.00 | 0.00 | 45 | 932.8 |
| 20260505171532 | 46 | 347 | 7.8 | 14.8 | 0.00 | 0.00 | 0.00 | 45 | 933.0 |
| 20260505170027 | 44 | 40 | 8.7 | 18.2 | 0.00 | 0.00 | 0.00 | 47 | 933.1 |
| 20260505164510 | 45 | 351 | 9.6 | 15.6 | 0.00 | 0.00 | 0.00 | 46 | 933.0 |
| 20260505163009 | 44 | 325 | 7.8 | 13.9 | 0.00 | 0.00 | 0.00 | 48 | 933.1 |
| 20260505161553 | 43 | 327 | 7.8 | 16.5 | 0.00 | 0.00 | 0.00 | 48 | 933.1 |
| 20260505153028 | 42 | 24 | 5.2 | 13.9 | 0.00 | 0.00 | 0.00 | 50 | 933.1 |
| 20260505151507 | 40 | 360 | 7.0 | 13.0 | 0.00 | 0.00 | 0.00 | 52 | 933.0 |
| 20260505124521 | 35 | 349 | 7.0 | 9.6 | 0.00 | 0.00 | 0.00 | 63 | 932.2 |
| 20260505123029 | 33 | 326 | 7.8 | 10.4 | 0.00 | 0.00 | 0.00 | 65 | 932.2 |
| 20260505121501 | 31 | 340 | 7.8 | 9.6 | 0.00 | 0.00 | 0.00 | 68 | 932.0 |
| 20260505120059 | 31 | 342 | 5.2 | 7.0 | 0.00 | 0.00 | 0.00 | 66 | 931.9 |
| 20260505114559 | 33 | 5 | 3.5 | 7.8 | 0.00 | 0.00 | 0.00 | 65 | 931.8 |
| 20260505113039 | 33 | 351 | 4.3 | 7.0 | 0.00 | 0.00 | 0.00 | 65 | 931.7 |
| 20260505111533 | 33 | 333 | 5.2 | 7.0 | 0.00 | 0.00 | 0.00 | 64 | 931.6 |
| 20260505101601 | 36 | 334 | 3.5 | 5.2 | 0.00 | 0.00 | 0.00 | 59 | 931.6 |
| 20260505100052 | 36 | 329 | 3.5 | 5.2 | 0.00 | 0.00 | 0.00 | 60 | 931.6 |
| 20260505094531 | 36 | 355 | 2.6 | 5.2 | 0.00 | 0.00 | 0.00 | 60 | 931.5 |
| 20260505093006 | 36 | 348 | 3.5 | 4.3 | 0.00 | 0.00 | 0.00 | 59 | 931.3 |
| 20260505091505 | 36 | 348 | 3.5 | 5.2 | 0.00 | 0.00 | 0.00 | 59 | 931.4 |
| 20260505090048 | 36 | 355 | 4.3 | 5.2 | 0.00 | 0.00 | 0.00 | 59 | 931.3 |
| 20260505084547 | 36 | 348 | 4.3 | 6.1 | 0.00 | 0.00 | 0.00 | 59 | 931.4 |
| 20260505083026 | 36 | 346 | 4.3 | 5.2 | 0.00 | 0.00 | 0.00 | 58 | 931.2 |
| 20260505081527 | 37 | 348 | 3.5 | 6.1 | 0.00 | 0.00 | 0.00 | 58 | 931.2 |
| 20260505080008 | 37 | 344 | 4.3 | 6.1 | 0.00 | 0.00 | 0.00 | 57 | 931.0 |
| 20260505074509 | 37 | 337 | 1.7 | 5.2 | 0.00 | 0.00 | 0.00 | 57 | 931.1 |
| 20260505073050 | 38 | 341 | 4.3 | 7.0 | 0.00 | 0.00 | 0.00 | 56 | 930.9 |
| 20260505071554 | 37 | 349 | 3.5 | 5.2 | 0.00 | 0.00 | 0.00 | 56 | 931.0 |
| 20260505070031 | 38 | 11 | 4.3 | 6.1 | 0.00 | 0.00 | 0.00 | 56 | 931.1 |
| 20260505064529 | 38 | 26 | 3.5 | 4.3 | 0.00 | 0.00 | 0.00 | 55 | 931.1 |
| 20260505063011 | 38 | 26 | 2.6 | 3.5 | 0.00 | 0.00 | 0.00 | 54 | 930.9 |
| 20260505061520 | 38 | 28 | 2.6 | 4.3 | 0.00 | 0.00 | 0.00 | 55 | 930.7 |
| 20260505060053 | 37 | 247 | 1.7 | 3.5 | 0.00 | 0.00 | 0.00 | 56 | 930.7 |
| 20260505054552 | 36 | 154 | 0.9 | 1.7 | 0.00 | 0.00 | 0.00 | 57 | 930.8 |
| 20260505053040 | 35 | 156 | 1.7 | 4.3 | 0.00 | 0.00 | 0.00 | 58 | 930.4 |
| 20260505051539 | 35 | 138 | 0.9 | 3.5 | 0.00 | 0.00 | 0.00 | 57 | 930.4 |
| 20260505041544 | 40 | 5 | 2.6 | 5.2 | 0.00 | 0.00 | 0.00 | 50 | 930.2 |
| 20260505040023 | 41 | 31 | 2.6 | 7.0 | 0.00 | 0.00 | 0.00 | 48 | 929.9 |
| 20260505034519 | 42 | 43 | 6.1 | 12.2 | 0.00 | 0.00 | 0.00 | 47 | 929.8 |
| 20260505033104 | 43 | 44 | 7.0 | 11.3 | 0.00 | 0.00 | 0.00 | 46 | 929.8 |
| 20260505031557 | 44 | 34 | 7.8 | 13.0 | 0.00 | 0.00 | 0.00 | 45 | 929.6 |
| 20260505030036 | 45 | 29 | 10.4 | 13.9 | 0.00 | 0.00 | 0.00 | 43 | 929.4 |
| 20260505024533 | 46 | 33 | 11.3 | 17.4 | 0.00 | 0.00 | 0.00 | 41 | 929.0 |
| 20260505023019 | 47 | 15 | 12.2 | 17.4 | 0.00 | 0.00 | 0.00 | 38 | 928.8 |
| 20260505021510 | 48 | 38 | 14.8 | 20.9 | 0.00 | 0.00 | 0.00 | 36 | 928.5 |
| 20260505020053 | 50 | 14 | 13.0 | 20.0 | 0.00 | 0.00 | 0.00 | 34 | 928.3 |
| 20260505014555 | 51 | 27 | 12.2 | 21.7 | 0.00 | 0.00 | 0.00 | 31 | 928.1 |
| 20260505013032 | 52 | 40 | 14.8 | 22.6 | 0.00 | 0.00 | 0.00 | 28 | 927.9 |
| 20260505011534 | 54 | 5 | 14.8 | 24.3 | 0.00 | 0.00 | 0.00 | 27 | 927.7 |
| 20260505010016 | 54 | 360 | 17.4 | 22.6 | 0.00 | 0.00 | 0.00 | 27 | 927.6 |
| 20260505004508 | 54 | 351 | 16.5 | 23.5 | 0.00 | 0.00 | 0.00 | 25 | 927.6 |
| 20260505003054 | 55 | 13 | 16.5 | 22.6 | 0.00 | 0.00 | 0.00 | 23 | 927.5 |
| 20260505001549 | 55 | 329 | 20.9 | 26.1 | 0.00 | 0.00 | 0.00 | 22 | 927.3 |
| 20260505000042 | 56 | 9 | 17.4 | 27.8 | 0.00 | 0.00 | 0.00 | 23 | 927.3 |
| 20260504234528 | 56 | 355 | 17.4 | 26.1 | 0.00 | 0.00 | 0.00 | 24 | 927.2 |
| 20260504233010 | 56 | 347 | 17.4 | 30.4 | 0.00 | 0.00 | 0.00 | 23 | 927.1 |
| 20260504231509 | 55 | 342 | 20.0 | 30.4 | 0.00 | 0.00 | 0.00 | 23 | 927.0 |
| 20260504230056 | 56 | 350 | 14.8 | 29.5 | 0.00 | 0.00 | 0.00 | 24 | 926.9 |
| 20260504224554 | 55 | 341 | 19.1 | 26.9 | 0.00 | 0.00 | 0.00 | 26 | 926.9 |
| 20260504223101 | 56 | 324 | 19.1 | 27.8 | 0.00 | 0.00 | 0.00 | 27 | 926.8 |
| 20260504221603 | 57 | 336 | 17.4 | 26.1 | 0.00 | 0.00 | 0.00 | 28 | 926.9 |
| 20260504220052 | 54 | 331 | 16.5 | 27.8 | 0.00 | 0.00 | 0.00 | 29 | 926.9 |
| 20260504214601 | 56 | 329 | 16.5 | 26.9 | 0.00 | 0.00 | 0.00 | 30 | 926.8 |
| 20260504213103 | 55 | 355 | 18.2 | 26.9 | 0.00 | 0.00 | 0.00 | 31 | 926.8 |
| 20260504211551 | 55 | 339 | 13.0 | 29.5 | 0.00 | 0.00 | 0.00 | 30 | 926.8 |
| 20260504210022 | 57 | 332 | 19.1 | 26.9 | 0.00 | 0.00 | 0.00 | 29 | 926.8 |
| 20260504204519 | 55 | 327 | 15.6 | 29.5 | 0.00 | 0.00 | 0.00 | 33 | 926.8 |
| 20260504203059 | 55 | 322 | 22.6 | 29.5 | 0.00 | 0.00 | 0.00 | 32 | 926.8 |
| 20260504201600 | 54 | 327 | 15.6 | 29.5 | 0.00 | 0.00 | 0.00 | 32 | 926.6 |
| 20260504200041 | 53 | 325 | 20.0 | 27.8 | 0.00 | 0.00 | 0.00 | 31 | 926.7 |
| 20260504194544 | 55 | 328 | 13.0 | 31.3 | 0.00 | 0.00 | 0.00 | 32 | 926.5 |
| 20260504193022 | 55 | 332 | 15.6 | 26.1 | 0.00 | 0.00 | 0.00 | 34 | 926.6 |
| 20260504191532 | 56 | 324 | 15.6 | 27.8 | 0.00 | 0.00 | 0.00 | 32 | 926.6 |
| 20260504190005 | 56 | 334 | 15.6 | 26.9 | 0.00 | 0.00 | 0.00 | 34 | 926.5 |
| 20260504184503 | 57 | 338 | 15.6 | 28.7 | 0.00 | 0.00 | 0.00 | 34 | 926.3 |
| 20260504183045 | 56 | 328 | 19.1 | 27.8 | 0.00 | 0.00 | 0.00 | 34 | 926.3 |
| 20260504181546 | 56 | 5 | 19.1 | 26.1 | 0.00 | 0.00 | 0.00 | 35 | 926.1 |
| 20260504180025 | 55 | 320 | 18.2 | 22.6 | 0.00 | 0.00 | 0.00 | 36 | 926.4 |
| 20260504174524 | 55 | 326 | 17.4 | 24.3 | 0.00 | 0.00 | 0.00 | 36 | 926.5 |